Location: Eferding
(48.3167°N, 14.0167°E)
Time: 12:46:57
(UTC+00:00)

NOAA 11 - Pass Details

Date: 12 November 2019
Orbit: 834 x 849 km, 98.4° (Epoch: 13 December)

Event Time Altitude Azimuth Distance (km) Brightness Sun altitude
Rises 17:07:08 0° 145° (SE) 3,371 7.1 -16.3°
Reaches altitude 10° 17:09:33 10° 139° (SE) 2,441 6.3 -16.7°
Maximum altitude 17:14:42 47° 68° (ENE) 1,104 4.4 -17.5°
Drops below altitude 10° 17:19:53 10° 356° (N) 2,459 6.6 -18.4°
Sets 17:22:19 0° 351° (N) 3,399 7.4 -18.8°
